Regional Weather Roundup
Issued by NWS

Home | Current Version | Previous Version | Text Only | Print | Product List | Glossary Off
Versions: 1 2 3 4 5 6 7 8 9 10 11 12 13 14 15 16 17 18 19 20 21 22 23 24 25 26 27 28 29 30 31 32 33 34 35 36 37 38 39 40 41 42 43 44 45 46 47 48 49 50

812
ASUS43 KOAX 231610
RWRNE

WEATHER ROUNDUP FOR NEBRASKA
NATIONAL WEATHER SERVICE OMAHA NE
1000 AM CST THU NOV 23 2017

NOTES: SATELLITE DATA IS BEING USED TO AUGMENT CLOUD COVER ABOVE
       12000 FEET.
       "FAIR" INDICATES FEW OR NO CLOUDS BELOW 12,000 FEET WITH NO
       SIGNIFICANT WEATHER AND/OR OBSTRUCTIONS TO VISIBILITY.


NEZ001>004-019>022-054>056-231700-
NEBRASKA PANHANDLE

CITY           SKY/WX    TMP DP  RH WIND       PRES   REMARKS
SCOTTSBLUFF    CLOUDY    47  42  83 E3        30.10F
ALLIANCE       SUNNY     50  43  77 W12       30.07F
CHADRON        SUNNY     49  42  77 W5        30.03F
GORDON         FAIR      49  39  69 SW10      30.01F
KIMBALL        CLOUDY    53  39  59 W9        30.15S
SIDNEY         CLOUDY    54  40  59 W13       30.13F
$$

NEZ057>060-069>072-079>082-231700-
SOUTHWEST NEBRASKA

CITY           SKY/WX    TMP DP  RH WIND       PRES   REMARKS
NORTH PLATTE   SUNNY     48  41  76 W5        30.08S
IMPERIAL       CLOUDY    51  41  68 W9        30.11S
LEXINGTON      SUNNY     49  40  69 NW8       30.07F
MCCOOK         CLOUDY    48  40  73 W9        30.09F
OGALLALA       SUNNY     49  41  72 W13       30.10S
$$

NEZ005>010-023>029-035>040-094-231700-
NORTH CENTRAL NEBRASKA

CITY           SKY/WX    TMP DP  RH WIND       PRES   REMARKS
VALENTINE      CLOUDY    51  40  65 W13       29.99F
AINSWORTH      SUNNY     55  42  61 W7        29.99S
BROKEN BOW     SUNNY     55  42  61 SW6       30.04S
O`NEILL        CLOUDY    50  43  76 SW8       30.00R
ORD            SUNNY     47  39  74 CALM      30.02F
THEDFORD       SUNNY     55  41  59 W9        30.04F
$$

NEZ041-046>049-061>064-073>077-083>087-231700-
SOUTH CENTRAL NEBRASKA

CITY           SKY/WX    TMP DP  RH WIND       PRES   REMARKS
GRAND ISLAND   CLOUDY    53  41  63 W6        30.05S
AURORA         CLOUDY    52  40  62 W3        30.04F
HASTINGS       CLOUDY    51  38  60 W5        30.06S
HEBRON         SUNNY     53  38  55 CALM      30.06S
HOLDREGE       SUNNY     53  41  64 W6        30.07S
KEARNEY        SUNNY     53  39  59 SW3       30.06F
YORK           SUNNY     54  41  62 W6        30.04F
$$

NEZ011>018-030>034-042>045-231700-
NORTHEAST NEBRASKA

CITY           SKY/WX    TMP DP  RH WIND       PRES   REMARKS
NORFOLK        CLOUDY    46  38  73 CALM      30.00F
ALBION         CLOUDY    51  40  66 CALM      30.01F
BLAIR          SUNNY     49  35  59 NW9       30.01S
COLUMBUS       SUNNY     47  36  65 W5        30.04S
FREMONT        SUNNY     47  36  66 CALM      30.03F
TEKAMAH        SUNNY     47  33  58 NW5       30.02S
WAYNE          SUNNY     47  33  59 CALM      30.01S
$$

NEZ050>053-065>068-078-088>093-231700-
SOUTHEAST NEBRASKA

CITY           SKY/WX    TMP DP  RH WIND       PRES   REMARKS
LINCOLN        SUNNY     48  36  63 CALM      30.05F
OMAHA EPPLEY   MOSUNNY   45  33  63 N6        30.03S
BEATRICE       SUNNY     50  37  60 NW6       30.04F
FALLS CITY     SUNNY     47  32  56 NW7       30.03S
NEBRASKA CITY  SUNNY     51  37  58 N7        30.04R
PLATTSMOUTH    SUNNY     47  36  65 NW7       30.03S
$$

NEZ044-045-051>053-067-231700-
OMAHA AREA

CITY           SKY/WX    TMP DP  RH WIND       PRES   REMARKS
OMAHA EPPLEY   MOSUNNY   45  33  63 N6        30.03S
BLAIR          SUNNY     49  35  59 NW9       30.01S
FREMONT        SUNNY     47  36  66 CALM      30.03F
MILLARD        SUNNY     48  36  61 NW5       30.03S
OFFUTT AFB     SUNNY     45  33  62 W6        30.02F
PLATTSMOUTH    SUNNY     47  36  65 NW7       30.03S
WAHOO          FAIR      50  36  59 N3        30.03F
$$




USA.gov is the U.S. government's official web portal to all federal, state and local government web resources and services.